Weather History for Racine, WI

Change the Weather History Date:

Sunday, September 1, 2013

  Actual Average Record
Temperature  
Mean Temperature 72 °F -  
Max Temperature 82 °F 75 °F 101 °F (1953)
Min Temperature 62 °F 60 °F 42 °F (1949)
Cooling Degree Days 6    
Growing Degree Days 22 (Base 50)    
Moisture  
Dew Point 64 °F    
Average Humidity 84    
Maximum Humidity 100    
Minimum Humidity 60    
Precipitation  
Precipitation 0.01 in - - ()
Sea Level Pressure  
Sea Level Pressure 29.79 in    
Wind  
Wind Speed 3 mph (WNW)    
Max Wind Speed 12 mph    
Max Gust Speed 21 mph    
Visibility 8 miles    
Events Rain , Thunderstorm    
Averages and records for this station are not official NWS values.
T = Trace of Precipitation, MM = Missing Value Source: NWS Daily Summary

Daily Weather History Graph

Daily Weather History Graph

Search for Another Location

Airport:

Trip Planner

Search our weather history database for the weather conditions in past years. The results will help you decide how hot, cold, wet, or windy it might be!

Date:

Astronomy

Sep. 01, 2013 Rise Set
Actual Time 6:16 AM CDT 7:25 PM CDT
Civil Twilight 5:47 AM CDT 7:54 PM CDT
Nautical Twilight 5:12 AM CDT 8:28 PM CDT
Astronomical Twilight 4:35 AM CDT 9:05 PM CDT
Moon 2:34 AM CDT (9/1) 5:05 PM CDT (9/1)
Length of Visible Light 14h 07m
Length of Day
13h 09m
Waning Crescent, 13% of the Moon is Illuminated
Sep 1
Waning Crescent
Sep 5
New
Sep 12
First Quarter
Sep 19
Full
Sep 26
Last Quarter

Hourly Weather History & Observations

Time (CDT) Temp. Heat Index Dew Point Humidity Pressure Visibility Wind Dir Wind Speed Gust Speed Precip Events Conditions
12:53 AM 66.9 °F - 64.9 °F 93% 29.83 in 10.0 mi Calm Calm - N/A   Mostly Cloudy
1:06 AM 66.2 °F - 64.4 °F 94% 29.83 in 8.0 mi Calm Calm - N/A   Scattered Clouds
1:53 AM 66.9 °F - 64.9 °F 93% 29.82 in 10.0 mi Calm Calm - N/A   Clear
2:53 AM 66.0 °F - 64.0 °F 93% 29.83 in 10.0 mi NW 4.6 mph - N/A   Mostly Cloudy
3:18 AM 64.4 °F - 62.6 °F 94% 29.80 in 8.0 mi Calm Calm - N/A   Scattered Clouds
3:53 AM 64.0 °F - 61.0 °F 90% 29.79 in 10.0 mi Calm Calm - N/A   Partly Cloudy
4:53 AM 63.0 °F - 61.0 °F 93% 29.79 in 10.0 mi Calm Calm - N/A   Clear
5:46 AM 62.6 °F - 60.8 °F 94% 29.79 in 1.8 mi Calm Calm - 0.01 in   Clear
5:53 AM 63.0 °F - 62.1 °F 97% 29.78 in 3.0 mi Calm Calm - 0.01 in   Clear
5:59 AM 62.6 °F - 60.8 °F 94% 29.78 in 1.8 mi Calm Calm - N/A   Clear
6:09 AM 62.6 °F - 60.8 °F 94% 29.79 in 4.0 mi Calm Calm - N/A   Clear
6:53 AM 64.0 °F - 62.1 °F 93% 29.80 in 6.0 mi WNW 6.9 mph - N/A   Clear
7:04 AM 62.6 °F - 60.8 °F 94% 29.81 in 2.5 mi WNW 9.2 mph - N/A   Scattered Clouds
7:14 AM 62.6 °F - 62.6 °F 100% 29.79 in 2.0 mi WNW 3.5 mph - N/A   Mostly Cloudy
7:29 AM 62.6 °F - 60.8 °F 94% 29.79 in 4.0 mi Calm Calm - N/A   Mostly Cloudy
7:46 AM 64.4 °F - 62.6 °F 94% 29.79 in 8.0 mi NW 3.5 mph - N/A   Scattered Clouds
7:53 AM 64.9 °F - 63.0 °F 93% 29.79 in 9.0 mi Calm Calm - N/A   Partly Cloudy
8:53 AM 71.1 °F - 66.9 °F 87% 29.79 in 10.0 mi West 3.5 mph - N/A   Clear
9:39 AM 73.4 °F - 66.2 °F 78% 29.83 in 10.0 mi West 8.1 mph - N/A   Mostly Cloudy
9:53 AM 73.9 °F - 66.9 °F 79% 29.82 in 10.0 mi WNW 9.2 mph - N/A   Mostly Cloudy
10:10 AM 73.4 °F - 64.4 °F 73% 29.82 in 10.0 mi WNW 9.2 mph - N/A   Partly Cloudy
10:53 AM 77.0 °F - 64.9 °F 66% 29.80 in 10.0 mi Variable 5.8 mph - N/A   Clear
11:53 AM 79.0 °F - 64.9 °F 62% 29.78 in 10.0 mi WNW 5.8 mph - N/A   Clear
12:53 PM 81.0 °F 83.0 °F 66.0 °F 60% 29.77 in 10.0 mi Variable 5.8 mph - N/A   Partly Cloudy
1:53 PM 78.1 °F - 68.0 °F 71% 29.76 in 10.0 mi ESE 6.9 mph - N/A   Mostly Cloudy
2:53 PM 80.1 °F 82.7 °F 68.0 °F 67% 29.75 in 10.0 mi SSE 9.2 mph - N/A   Partly Cloudy
3:53 PM 79.0 °F - 68.0 °F 69% 29.74 in 10.0 mi SSE 9.2 mph - N/A   Mostly Cloudy
4:53 PM 79.0 °F - 68.0 °F 69% 29.73 in 10.0 mi SSE 10.4 mph - N/A   Mostly Cloudy
5:53 PM 78.1 °F - 68.0 °F 71% 29.74 in 10.0 mi South 8.1 mph - N/A   Scattered Clouds
6:53 PM 75.9 °F - 70.0 °F 82% 29.76 in 10.0 mi North 11.5 mph 17.3 mph N/A Thunderstorm Scattered Clouds
7:12 PM 73.4 °F - 64.4 °F 73% 29.76 in 10.0 mi NNW 11.5 mph 20.7 mph 0.00 in Rain Light Rain
7:53 PM 72.0 °F - 66.0 °F 81% 29.76 in 10.0 mi Calm Calm - 0.00 in   Clear
8:53 PM 71.1 °F - 66.0 °F 84% 29.80 in 10.0 mi Calm Calm - N/A   Partly Cloudy
9:53 PM 71.1 °F - 64.9 °F 81% 29.80 in 10.0 mi NW 8.1 mph - N/A   Partly Cloudy
10:53 PM 70.0 °F - 63.0 °F 78% 29.81 in 10.0 mi NW 6.9 mph - N/A   Clear
11:53 PM 69.1 °F - 62.1 °F 78% 29.82 in 10.0 mi NW 4.6 mph - N/A   Clear